Location: Vancouver
(49.2500°N, 123.1330°W)
Time: 00:02:40
(UTC-07:00)

Cosmos 2333 Rocket - Visible Passes

Search period start: 31 October 2014 00:00
Search period end: 09 November 2014 23:00
Orbit: 839 x 862 km, 70.9° (Epoch: 30 October)

Date Brightness Start Highest point End Pass type
(mag) Time Alt. Az. Time Alt. Az. Time Alt. Az.
31 Oct 3.0 19:31:30 10° SW 19:37:06 53° NW 19:42:43 10° NNE visible
31 Oct 4.8 21:19:29 10° WNW 21:22:46 15° NNW 21:26:03 10° N visible
01 Nov 3.0 19:19:14 10° SW 19:24:49 53° NW 19:30:26 10° NNE visible
01 Nov 4.7 21:07:12 10° WNW 21:10:29 15° NNW 21:13:46 10° N visible
02 Nov 3.0 18:06:57 10° SW 18:12:32 53° NW 18:18:09 10° NNE visible
02 Nov 4.7 19:54:55 10° WNW 19:58:12 15° NNW 20:01:29 10° N visible
03 Nov 3.0 17:54:40 10° SW 18:00:16 53° NW 18:05:52 10° NNE visible
03 Nov 4.7 19:42:38 10° WNW 19:45:55 15° NNW 19:49:12 10° N visible
04 Nov 3.0 17:42:23 10° SW 17:47:59 53° NW 17:53:35 10° NNE visible
04 Nov 4.7 19:30:21 10° WNW 19:33:38 15° NNW 19:36:55 10° N visible
05 Nov 3.0 17:30:06 10° SW 17:35:42 53° NW 17:41:18 10° NNE visible
05 Nov 4.7 19:18:05 10° WNW 19:21:21 15° NNW 19:24:38 10° N visible
06 Nov 3.0 17:17:49 10° SW 17:23:25 53° NW 17:29:01 10° NNE visible
06 Nov 4.6 19:05:48 10° WNW 19:09:04 15° NNW 19:12:21 10° N visible
07 Nov 4.6 18:53:31 10° WNW 18:56:47 15° NNW 19:00:04 10° N visible
08 Nov 4.6 18:41:14 10° WNW 18:44:30 15° NNW 18:47:47 10° N visible
09 Nov 4.6 18:28:57 10° WNW 18:32:14 15° NNW 18:35:30 10° N visible
